Eagle, AK

6:24 PM AKDT on April 23, 2017 (GMT -0800)
Eagle

Weather History for PAEG - May, 2014

Change the Weather History Date:

Sunday, May 11, 2014

  Actual Average (PABN) Record (PABN)
Temperature  
Mean Temperature 44 °F -  
Max Temperature 66 °F 44 °F 66 °F (2005)
Min Temperature 24 °F 35 °F 30 °F (2000)
Degree Days  
Heating Degree Days 21    
Moisture  
Dew Point 24 °F    
Average Humidity 46    
Maximum Humidity 84    
Minimum Humidity 19    
Precipitation  
Precipitation 0.00 in - - ()
Sea Level Pressure  
Sea Level Pressure 30.32 in    
Wind  
Wind Speed 1 mph (WNW)    
Max Wind Speed 8 mph    
Max Gust Speed -    
Visibility 10 miles    
Events      
Averages and records for this station are not official NWS values.
T = Trace of Precipitation, MM = Missing Value Source: NWS Daily Summary

Daily Weather History Graph

Daily Weather History Graph

Search for Another Location

Airport or City:

Trip Planner

Search our weather history database for the weather conditions in past years. The results will help you decide how hot, cold, wet, or windy it might be!

Date:

Astronomy

May. 11, 2014 Rise Set
Actual Time 4:15 AM AKDT 10:28 PM AKDT
Civil Twilight 2:38 AM AKDT 12:10 AM AKDT
Nautical Twilight Sun does not set Sun does not set
Astronomical Twilight Sun does not set Sun does not set
Moon 6:18 PM AKDT (5/11) 3:53 AM AKDT (5/11)
Length of Visible Light 21h 32m
Length of Day
18h 12m
Waxing Gibbous, 90% of the Moon is Illuminated
May 11
Waxing Gibbous
May 14
Full
May 21
Last Quarter
May 28
New
Jun 5
First Quarter

Hourly Weather History & Observations

Time (AKDT) Temp. Windchill Dew Point Humidity Pressure Visibility Wind Dir Wind Speed Gust Speed Precip Events Conditions
12:53 AM 30.9 °F - 23.0 °F 72% 30.33 in 10.0 mi Calm Calm - N/A   Overcast
1:53 AM 28.0 °F - 21.9 °F 78% 30.34 in 10.0 mi Calm Calm - N/A   Clear
2:53 AM 27.0 °F 23.0 °F 21.0 °F 78% 30.35 in 10.0 mi Variable 3.5 mph - N/A   Clear
3:53 AM 25.0 °F - 19.9 °F 81% 30.36 in 10.0 mi Calm Calm - N/A   Clear
4:53 AM 24.1 °F - 19.9 °F 84% 30.38 in 10.0 mi Calm Calm - N/A   Clear
5:53 AM 28.0 °F - 21.9 °F 78% 30.38 in 10.0 mi Calm Calm - N/A   Clear
6:53 AM 36.0 °F - 26.1 °F 67% 30.38 in 10.0 mi Calm Calm - N/A   Clear
7:53 AM 41.0 °F - 26.1 °F 55% 30.38 in 10.0 mi Calm Calm - N/A   Clear
8:53 AM 46.0 °F - 27.0 °F 47% 30.37 in 10.0 mi Calm Calm - N/A   Clear
9:53 AM 51.1 °F - 27.0 °F 39% 30.36 in 10.0 mi Calm Calm - N/A   Clear
10:53 AM 54.0 °F - 27.0 °F 35% 30.35 in 10.0 mi Calm Calm - N/A   Clear
11:53 AM 57.0 °F - 24.1 °F 28% 30.34 in 10.0 mi Calm Calm - N/A   Clear
12:53 PM 60.1 °F - 21.0 °F 22% 30.33 in 10.0 mi NW 5.8 mph - N/A   Clear
1:53 PM 62.1 °F - 24.1 °F 23% 30.31 in 10.0 mi Calm Calm - N/A   Clear
2:53 PM 63.0 °F - 24.1 °F 23% 30.30 in 10.0 mi WSW 5.8 mph - N/A   Clear
3:53 PM 64.9 °F - 24.1 °F 21% 30.29 in 10.0 mi Variable 6.9 mph - N/A   Clear
4:53 PM 64.9 °F - 24.1 °F 21% 30.27 in 10.0 mi NNW 8.1 mph - N/A   Clear
5:53 PM 64.9 °F - 21.9 °F 19% 30.26 in 10.0 mi WNW 5.8 mph - N/A   Clear
6:53 PM 64.9 °F - 24.1 °F 21% 30.25 in 10.0 mi Variable 3.5 mph - N/A   Clear
7:53 PM 64.9 °F - 24.1 °F 21% 30.25 in 10.0 mi North 4.6 mph - N/A   Clear
8:53 PM 63.0 °F - 24.1 °F 23% 30.25 in 10.0 mi Calm Calm - N/A   Clear
9:53 PM 48.9 °F - 28.9 °F 46% 30.27 in 10.0 mi South 3.5 mph - N/A   Clear
10:53 PM 39.9 °F - 27.0 °F 60% 30.29 in 10.0 mi Calm Calm - N/A   Clear
11:53 PM 35.1 °F 32.2 °F 25.0 °F 67% 30.30 in 10.0 mi SSW 3.5 mph - N/A   Clear